DL9GJ-6 Weather Reports


time (UTC)temp
F
wind
direction
speed
knots
gust
knots
rain 1hr
in
rain 24hr
in
rain mn
in
humidity
%
barometer
mb
20260506233821 46 227 2.6 5.2 0.00 0.49 0.00 92 1010.1
20260506233220 46 230 2.6 3.5 0.00 0.49 0.00 92 1010.1
20260506232620 46 236 0.9 3.5 0.00 0.49 0.00 92 1010.1
20260506232019 46 234 0.9 3.5 0.00 0.49 0.00 92 1010.0
20260506231419 46 234 0.9 3.5 0.00 0.49 0.00 91 1010.0
20260506230819 46 240 2.6 4.3 0.00 0.49 0.00 91 1010.0
20260506230219 46 222 0.9 3.5 0.00 0.49 0.00 91 1010.0
20260506225619 47 225 2.6 4.3 0.00 0.49 0.00 91 1010.0
20260506225019 47 222 0.9 3.5 0.00 0.49 0.00 91 1009.9
20260506224420 47 221 1.7 3.5 0.00 0.49 0.00 91 1010.0
20260506223807 47 167 0.0 3.5 0.00 0.49 0.00 91 1009.9
20260506223220 47 227 1.7 5.2 0.00 0.49 0.00 91 1009.9
20260506222620 47 240 4.3 6.1 0.00 0.49 0.00 91 1009.8
20260506222019 47 186 2.6 6.1 0.00 0.49 0.00 91 1009.9
20260506221410 47 216 1.7 4.3 0.00 0.49 0.00 91 1009.8
20260506220808 47 217 0.9 4.3 0.00 0.49 0.00 91 1009.7
20260506220221 47 240 2.6 4.3 0.00 0.49 0.00 91 1009.7
20260506215621 47 217 2.6 5.2 0.00 0.49 0.49 91 1009.7
20260506215021 47 201 1.7 3.5 0.00 0.49 0.49 91 1009.7
20260506214421 48 246 2.6 6.1 0.00 0.49 0.49 90 1009.5
20260506213819 48 235 4.3 6.1 0.00 0.49 0.49 90 1009.5
20260506213220 48 225 0.9 5.2 0.00 0.49 0.49 90 1009.4
20260506212619 48 236 1.7 6.1 0.00 0.49 0.49 90 1009.4
20260506212020 48 243 4.3 6.1 0.00 0.49 0.49 90 1009.4
20260506211420 48 228 3.5 7.0 0.00 0.49 0.49 90 1009.3
20260506210819 48 223 6.1 8.7 0.00 0.49 0.49 90 1009.2
20260506210212 48 231 2.6 7.0 0.00 0.49 0.49 90 1009.0
20260506205619 48 237 4.3 6.1 0.00 0.49 0.49 90 1009.1
20260506205019 49 232 3.5 7.8 0.00 0.49 0.49 90 1009.2
20260506204420 49 244 4.3 7.0 0.00 0.49 0.49 90 1009.3
20260506203821 49 225 4.3 7.8 0.00 0.49 0.49 90 1009.2
20260506203220 49 223 3.5 7.0 0.00 0.49 0.49 90 1009.2
20260506202620 49 234 4.3 6.1 0.00 0.49 0.49 90 1009.2
20260506202020 49 238 3.5 7.8 0.00 0.49 0.49 90 1009.3
20260506201420 49 258 2.6 7.0 0.00 0.49 0.49 90 1009.2
20260506200821 49 229 4.3 7.0 0.00 0.49 0.49 90 1009.2
20260506200220 49 227 2.6 7.8 0.00 0.49 0.49 90 1009.1
20260506195619 49 236 4.3 7.8 0.00 0.49 0.49 90 1009.1
20260506195010 49 236 2.6 7.8 0.00 0.49 0.49 90 1009.1
20260506194419 49 220 2.6 7.8 0.00 0.49 0.49 90 1008.9
20260506193820 49 226 4.3 6.1 0.00 0.49 0.49 90 1008.7
20260506193220 49 234 5.2 8.7 0.00 0.49 0.49 90 1008.7
20260506192620 49 219 2.6 5.2 0.00 0.49 0.49 90 1008.6
20260506192019 49 228 2.6 7.0 0.00 0.49 0.49 90 1008.6
20260506191420 49 244 1.7 7.0 0.00 0.49 0.49 91 1008.5
20260506190819 49 209 2.6 6.1 0.00 0.49 0.49 91 1008.4
20260506190220 49 221 2.6 7.8 0.00 0.49 0.49 91 1008.3
20260506185620 49 231 2.6 6.1 0.00 0.49 0.49 91 1008.2
20260506185020 49 238 1.7 5.2 0.00 0.49 0.49 91 1008.2
20260506184421 49 242 1.7 4.3 0.00 0.49 0.49 91 1008.0
20260506183820 49 250 2.6 5.2 0.00 0.49 0.49 91 1008.0
20260506183221 49 231 2.6 4.3 0.00 0.49 0.49 91 1007.9
20260506182621 50 269 2.6 6.1 0.00 0.49 0.49 91 1007.9
20260506182021 50 247 4.3 7.0 0.00 0.49 0.49 91 1007.9
20260506181420 50 245 3.5 5.2 0.00 0.49 0.49 91 1007.8
20260506180819 50 312 1.7 7.0 0.00 0.49 0.49 91 1007.8
20260506180220 50 225 3.5 7.0 0.00 0.49 0.49 91 1007.7
20260506175620 50 267 2.6 7.0 0.00 0.49 0.49 91 1007.6
20260506175012 50 280 3.5 10.4 0.00 0.49 0.49 91 1007.6
20260506174419 50 234 3.5 7.8 0.00 0.49 0.49 91 1007.5
20260506173819 50 223 3.5 7.8 0.00 0.49 0.49 91 1007.4
20260506173219 50 306 3.5 8.7 0.00 0.49 0.49 91 1007.1
20260506172619 50 257 3.5 7.0 0.00 0.49 0.49 91 1007.2
20260506172008 50 223 0.9 7.0 0.01 0.49 0.49 91 1007.1
20260506171420 50 249 4.3 8.7 0.01 0.49 0.49 91 1007.0
20260506170821 50 236 4.3 9.6 0.01 0.49 0.49 91 1007.1
20260506170220 50 231 6.1 8.7 0.01 0.49 0.49 91 1007.1
20260506165620 50 246 5.2 7.0 0.01 0.49 0.49 91 1006.9
20260506165021 50 256 4.3 9.6 0.01 0.49 0.49 91 1006.7
20260506164421 50 244 3.5 9.6 0.02 0.49 0.49 91 1006.8
20260506163821 50 155 4.3 9.6 0.10 0.49 0.49 91 1006.7
20260506163220 50 280 6.1 13.0 0.14 0.49 0.49 91 1006.6
20260506162620 50 264 3.5 8.7 0.14 0.49 0.49 91 1006.7
20260506162020 50 188 2.6 12.2 0.15 0.48 0.48 91 1006.7
20260506161420 50 292 6.1 15.6 0.46 0.48 0.48 91 1006.6
20260506160819 50 242 6.1 15.6 0.47 0.48 0.48 91 1006.6
20260506160219 50 309 6.1 16.5 0.47 0.48 0.48 91 1006.7
20260506155620 51 289 7.0 16.5 0.47 0.48 0.48 90 1006.6
20260506155019 51 269 5.2 11.3 0.47 0.48 0.48 90 1006.6
20260506154419 52 258 6.1 11.3 0.46 0.46 0.46 90 1006.5
20260506153820 53 278 1.7 10.4 0.38 0.39 0.39 90 1006.5
20260506153208 53 223 4.3 16.5 0.34 0.35 0.35 89 1006.2
20260506152606 53 300 7.8 17.4 0.34 0.35 0.35 88 1006.0
20260506152020 54 240 5.2 20.9 0.32 0.33 0.33 85 1005.8
20260506151421 60 232 4.3 13.0 0.01 0.02 0.02 71 1005.1
20260506150821 61 264 0.9 1.7 0.00 0.01 0.01 68 1004.2
20260506150220 61 231 0.0 1.7 0.00 0.01 0.01 69 1004.1
20260506145621 61 231 0.0 1.7 0.00 0.02 0.01 67 1003.9
20260506145019 62 223 0.0 1.7 0.00 0.02 0.01 68 1003.9
20260506144420 62 202 0.9 3.5 0.00 0.02 0.01 68 1004.2
20260506143819 63 216 2.6 6.1 0.00 0.02 0.01 68 1004.2
20260506143220 64 179 3.5 8.7 0.00 0.02 0.01 67 1004.1
20260506142620 64 181 1.7 6.1 0.00 0.02 0.01 68 1004.2
20260506142020 64 242 0.9 4.3 0.00 0.02 0.01 68 1004.1
20260506141421 63 188 1.7 5.2 0.01 0.02 0.01 70 1004.1
20260506140806 63 245 0.0 1.7 0.01 0.02 0.01 74 1004.1
20260506140220 61 300 0.0 1.7 0.01 0.02 0.01 74 1004.0
20260506135606 61 326 0.0 0.9 0.01 0.02 0.01 78 1004.1
20260506135021 61 234 0.0 1.7 0.01 0.02 0.01 79 1004.3
20260506134421 61 214 0.9 3.5 0.01 0.02 0.01 79 1004.5
20260506133821 61 232 0.9 2.6 0.01 0.02 0.01 78 1004.5
20260506133221 61 260 0.0 1.7 0.01 0.02 0.01 77 1004.6
20260506132620 61 258 1.7 3.5 0.01 0.02 0.01 76 1004.6
20260506132019 62 273 0.9 3.5 0.01 0.02 0.01 74 1004.5
20260506131420 62 240 2.6 4.3 0.00 0.01 0.00 69 1004.5
20260506130819 62 264 0.0 1.7 0.00 0.01 0.00 68 1004.5
20260506130219 63 264 2.6 4.3 0.00 0.01 0.00 67 1004.4
20260506125620 63 250 0.0 2.6 0.00 0.01 0.00 68 1004.3
20260506125021 63 313 0.9 4.3 0.00 0.01 0.00 69 1004.3
20260506124420 62 27 0.0 4.3 0.00 0.01 0.00 70 1004.2
20260506123806 62 5 1.7 4.3 0.00 0.01 0.00 70 1004.2
20260506123221 62 355 3.5 4.3 0.00 0.01 0.00 71 1004.2
20260506122620 62 349 0.0 4.3 0.00 0.01 0.00 71 1004.2
20260506122020 62 332 1.7 4.3 0.00 0.01 0.00 73 1004.3
20260506122007 62 332 1.7 4.3 0.00 0.01 0.00 73 1004.3
20260506121420 62 293 0.0 2.6 0.00 0.01 0.00 72 1004.2
20260506120821 62 325 1.7 4.3 0.00 0.01 0.00 70 1004.2
20260506120220 62 13 2.6 4.3 0.00 0.01 0.00 71 1004.3
20260506115620 62 348 0.0 1.7 0.00 0.02 0.00 70 1004.3
20260506115019 62 269 0.9 3.5 0.00 0.02 0.00 71 1004.4
20260506114419 62 319 1.7 5.2 0.00 0.02 0.00 72 1004.4
20260506113819 62 342 1.7 4.3 0.00 0.02 0.00 69 1004.4
20260506113220 62 342 1.7 5.2 0.00 0.02 0.00 69 1004.5
20260506112620 62 61 1.7 5.2 0.00 0.02 0.00 70 1004.4
20260506112021 62 340 1.7 6.1 0.00 0.02 0.00 72 1004.5
20260506111421 63 43 2.6 6.1 0.00 0.02 0.00 70 1004.5
20260506110820 63 281 0.0 7.0 0.00 0.02 0.00 71 1004.6
20260506110220 63 355 0.9 5.2 0.00 0.02 0.00 71 1004.7
20260506105606 62 355 0.9 5.2 0.00 0.02 0.00 73 1004.7
20260506105021 61 350 0.9 7.0 0.00 0.02 0.00 73 1004.8
20260506104421 61 344 2.6 5.2 0.00 0.02 0.00 74 1004.8
20260506103821 60 310 2.6 7.0 0.00 0.02 0.00 75 1004.9
20260506103211 60 336 2.6 5.2 0.00 0.02 0.00 75 1004.8
20260506102613 60 341 4.3 7.0 0.00 0.02 0.00 74 1004.9
20260506102020 60 17 3.5 5.2 0.00 0.02 0.00 73 1005.0
20260506101420 61 360 3.5 4.3 0.00 0.02 0.00 70 1005.3
20260506100820 61 281 0.0 3.5 0.00 0.02 0.00 72 1005.5
20260506100220 61 17 0.0 3.5 0.00 0.02 0.00 72 1005.5
20260506095621 61 338 0.0 3.5 0.00 0.02 0.00 72 1005.5
20260506095020 61 273 0.9 2.6 0.00 0.02 0.00 71 1005.5
20260506094421 60 345 0.9 3.5 0.00 0.02 0.00 71 1005.6
20260506093820 60 300 0.9 1.7 0.00 0.02 0.00 73 1005.5
20260506093221 60 254 0.0 3.5 0.00 0.02 0.00 70 1005.5
20260506092606 60 229 0.9 4.3 0.00 0.02 0.00 71 1005.5
20260506092008 60 350 0.0 3.5 0.00 0.02 0.00 72 1005.6
20260506091420 60 274 0.0 1.7 0.00 0.02 0.00 73 1005.5
20260506090821 59 323 0.0 1.7 0.00 0.02 0.00 75 1005.5
20260506090208 59 325 3.5 4.3 0.00 0.02 0.00 73 1005.5
20260506085620 59 345 0.0 3.5 0.00 0.02 0.00 77 1005.5
20260506085021 59 272 0.9 3.5 0.00 0.02 0.00 76 1005.5
20260506085006 59 272 0.9 3.5 0.00 0.02 0.00 76 1005.5
20260506084419 58 346 0.0 3.5 0.00 0.02 0.00 80 1005.4
20260506083821 57 24 0.0 2.6 0.00 0.02 0.00 80 1005.5
20260506083220 57 5 3.5 4.3 0.00 0.02 0.00 80 1005.6
20260506082621 57 16 0.0 4.3 0.00 0.02 0.00 81 1005.6
20260506082021 57 355 1.7 6.1 0.00 0.02 0.00 81 1005.6
20260506082007 57 355 1.7 6.1 0.00 0.02 0.00 81 1005.6
20260506081420 57 345 1.7 4.3 0.00 0.02 0.00 82 1005.6
20260506080820 57 330 3.5 5.2 0.00 0.02 0.00 81 1005.6
20260506080220 57 340 2.6 4.3 0.00 0.02 0.00 82 1005.5
20260506073207 56 296 0.0 1.7 0.00 0.02 0.00 84 1005.8
20260506072620 56 221 0.0 0.9 0.00 0.02 0.00 85 1005.9
20260506072020 55 221 0.9 3.5 0.00 0.02 0.00 85 1006.0
20260506071419 55 202 0.9 1.7 0.00 0.02 0.00 87 1006.1
20260506070811 55 107 0.0 0.0 0.00 0.02 0.00 88 1006.0
20260506070220 55 100 0.0 3.5 0.00 0.02 0.00 89 1006.0
20260506062021 53 78 0.0 2.6 0.00 0.02 0.00 92 1005.8
20260506062006 53 78 0.0 2.6 0.00 0.02 0.00 92 1005.8
20260506061420 52 130 0.9 3.5 0.00 0.02 0.00 92 1006.0
20260506060821 52 133 1.7 3.5 0.00 0.02 0.00 93 1006.0
20260506060220 51 113 0.0 1.7 0.00 0.02 0.00 93 1006.0
20260506050821 46 140 0.0 0.0 0.00 0.02 0.00 93 1006.1
20260506050220 46 140 0.0 0.0 0.00 0.02 0.00 93 1006.2
20260506045020 45 135 0.0 0.0 0.00 0.02 0.00 93 1006.3
20260506044421 45 135 0.0 0.0 0.00 0.02 0.00 93 1006.3
20260506043821 45 135 0.0 1.7 0.00 0.02 0.00 93 1006.3
20260506043220 45 135 0.0 0.0 0.00 0.02 0.00 93 1006.3
20260506042620 45 135 0.0 0.9 0.00 0.02 0.00 92 1006.3
20260506042020 45 139 0.0 0.0 0.00 0.02 0.00 92 1006.4
20260506041421 45 126 0.0 0.0 0.00 0.02 0.00 92 1006.5
20260506040822 45 126 0.0 0.0 0.00 0.02 0.00 93 1006.6
20260506040208 45 126 0.0 0.0 0.00 0.02 0.00 93 1006.5
20260506035620 45 126 0.0 1.7 0.00 0.02 0.00 93 1006.6
20260506035020 45 126 0.9 3.5 0.00 0.02 0.00 92 1006.7
20260506034421 46 121 0.9 3.5 0.00 0.02 0.00 92 1006.8
20260506033807 46 133 0.0 0.0 0.00 0.02 0.00 92 1006.9
20260506033220 46 133 0.0 0.0 0.00 0.02 0.00 92 1006.9
20260506032621 46 133 0.0 0.0 0.00 0.02 0.00 92 1006.9
20260506032021 46 133 0.0 0.0 0.00 0.02 0.00 92 1007.0
20260506031420 46 133 0.0 0.0 0.00 0.02 0.00 92 1006.9
20260506030808 46 126 0.0 1.7 0.00 0.02 0.00 92 1006.9
20260506030221 46 140 0.0 2.6 0.00 0.02 0.00 92 1007.0
20260506025621 46 134 0.0 1.7 0.00 0.02 0.00 92 1007.0
20260506025021 46 121 0.0 1.7 0.00 0.02 0.00 92 1007.1
20260506024420 46 128 0.9 1.7 0.00 0.02 0.00 92 1007.1
20260506023821 46 132 0.0 1.7 0.00 0.02 0.00 92 1007.2
20260506023208 47 124 1.7 3.5 0.00 0.02 0.00 92 1007.1
20260506022622 47 123 0.9 3.5 0.00 0.02 0.00 92 1007.1
20260506022022 47 123 0.0 0.0 0.00 0.02 0.00 92 1007.2
20260506021422 47 157 0.0 0.0 0.00 0.02 0.00 92 1007.3
20260506020811 47 157 0.0 0.0 0.00 0.02 0.00 92 1007.3
20260506020209 47 157 0.0 0.0 0.00 0.02 0.00 92 1007.2
20260506015607 48 157 0.0 0.0 0.00 0.02 0.00 91 1007.3
20260506015020 48 157 0.0 0.0 0.00 0.02 0.00 92 1007.2
20260506014421 48 195 0.0 0.0 0.00 0.02 0.00 92 1007.3
20260506013806 49 221 0.0 0.0 0.00 0.02 0.00 92 1007.3
20260506013207 49 221 0.0 0.0 0.00 0.02 0.00 92 1007.4
20260506012620 49 221 0.0 0.0 0.00 0.02 0.00 92 1007.4
20260506012021 49 221 0.0 0.9 0.00 0.02 0.00 92 1007.5
20260506011414 49 201 0.9 1.7 0.00 0.02 0.00 92 1007.8
20260506010821 49 208 0.9 0.9 0.00 0.02 0.00 92 1007.8
20260506010221 49 207 0.9 1.7 0.00 0.02 0.00 92 1007.7
20260506005622 49 213 1.7 5.2 0.00 0.02 0.00 92 1007.6
20260506005022 49 191 0.9 3.5 0.00 0.02 0.00 92 1007.6
20260506004413 49 194 0.9 3.5 0.00 0.02 0.00 92 1007.5
20260506003810 49 192 0.9 1.7 0.00 0.02 0.00 92 1007.6
20260506003209 48 209 0.0 1.7 0.00 0.02 0.00 92 1007.6
20260506002606 48 192 0.0 0.9 0.00 0.02 0.00 91 1007.6
20260506002020 48 225 0.0 0.0 0.00 0.02 0.00 91 1007.7
20260506001420 48 225 0.0 0.0 0.00 0.02 0.00 91 1007.7
20260506000820 49 225 0.0 0.0 0.00 0.02 0.00 91 1007.8
20260506000220 49 225 0.0 0.0 0.00 0.02 0.00 91 1007.8
20260505235620 49 225 0.0 1.7 0.00 0.02 0.00 91 1007.7
20260505235020 49 225 1.7 4.3 0.00 0.02 0.00 91 1007.8
20260505234420 49 235 0.0 5.2 0.00 0.02 0.00 91 1007.9